timestamp,surface_pressure_avg,surface_temp_avg,battery_voltage,lat,long
2019-02-07 00:00:00+00:00,342.9346,0.4,12.89,47.84626,-54.09684
2019-02-07 00:10:00+00:00,347.6013,0.4,12.81,47.84626,-54.09684
2019-02-07 00:20:00+00:00,345.1229,0.33,12.89,47.84626,-54.09684
2019-02-07 00:30:00+00:00,344.323,0.39,12.89,47.84626,-54.09684
2019-02-07 00:40:00+00:00,344.7014,0.4,12.97,47.84626,-54.09684
2019-02-07 00:50:00+00:00,347.3547,0.4,12.97,47.84626,-54.09684
2019-02-07 01:00:00+00:00,347.7662,0.4,12.89,47.84626,-54.09684
2019-02-07 01:10:00+00:00,346.1814,0.37,12.81,47.84626,-54.09684
2019-02-07 01:20:00+00:00,345.2697,0.4,12.89,47.84626,-54.09684
2019-02-07 01:30:00+00:00,347.203,0.4,12.89,47.84626,-54.09684
2019-02-07 01:40:00+00:00,349.3996,0.4,12.89,47.84626,-54.09684
2019-02-07 01:50:00+00:00,347.5446,0.38,12.89,47.84626,-54.09684
2019-02-07 02:00:00+00:00,344.7097,0.3,12.81,47.84626,-54.09684
2019-02-07 02:10:00+00:00,338.0563,0.3,12.73,47.84626,-54.09684
2019-02-07 02:20:00+00:00,333.7596,0.38,12.81,47.84626,-54.09684
2019-02-07 02:30:00+00:00,329.2713,0.4,12.81,47.84626,-54.09684
2019-02-07 02:40:00+00:00,323.903,0.3,12.89,47.84626,-54.09684
2019-02-07 02:50:00+00:00,323.813,0.3,12.89,47.84626,-54.09684
2019-02-07 03:00:00+00:00,317.673,0.2,12.81,47.84626,-54.09684
2019-02-07 03:10:00+00:00,309.7214,0.17,12.73,47.84626,-54.09684
2019-02-07 03:20:00+00:00,307.2513,0.2,12.81,47.84626,-54.09684
2019-02-07 03:30:00+00:00,304.9397,0.22,12.81,47.84626,-54.09684
2019-02-07 03:40:00+00:00,296.0114,0.25,12.81,47.84626,-54.09684
2019-02-07 03:50:00+00:00,289.8147,0.28,12.81,47.84626,-54.09684
2019-02-07 04:00:00+00:00,282.0764,0.2,12.73,47.84626,-54.09684
2019-02-07 04:10:00+00:00,273.5047,-0.1,12.73,47.84626,-54.09684
2019-02-07 04:20:00+00:00,267.6931,0.07,12.81,47.84626,-54.09684
2019-02-07 04:30:00+00:00,258.6664,0.2,12.81,47.84626,-54.09684
2019-02-07 04:40:00+00:00,246.1948,0.2,12.81,47.84626,-54.09684
2019-02-07 04:50:00+00:00,240.4447,0.19,12.81,47.84626,-54.09684
2019-02-07 05:00:00+00:00,240.4798,0.19,12.73,47.84626,-54.09684
2019-02-07 05:10:00+00:00,230.7598,0.19,12.65,47.84626,-54.09684
2019-02-07 05:20:00+00:00,217.9281,0.19,12.81,47.84626,-54.09684
2019-02-07 05:30:00+00:00,216.2765,0.2,12.81,47.84626,-54.09684
2019-02-07 05:40:00+00:00,222.6131,0.19,12.81,47.84626,-54.09684
2019-02-07 05:50:00+00:00,224.2013,0.1,12.81,47.84626,-54.09684
2019-02-07 06:00:00+00:00,218.5231,-0.1,12.73,47.84626,-54.09684
2019-02-07 06:10:00+00:00,209.2514,-0.08,12.65,47.84626,-54.09684
2019-02-07 06:20:00+00:00,206.8781,-0.0,12.73,47.84626,-54.09684
2019-02-07 06:30:00+00:00,206.5331,0.1,12.81,47.84626,-54.09684
2019-02-07 06:40:00+00:00,200.2448,0.17,12.81,47.84626,-54.09684
2019-02-07 06:50:00+00:00,202.6714,0.19,12.81,47.84626,-54.09684
2019-02-07 07:00:00+00:00,211.6315,0.2,12.73,47.84626,-54.09684
2019-02-07 07:10:00+00:00,209.3148,0.2,12.65,47.84626,-54.09684
2019-02-07 07:20:00+00:00,209.1081,0.1,12.73,47.84626,-54.09684
2019-02-07 07:40:00+00:00,219.8381,0.0,12.81,47.84626,-54.09684
2019-02-07 07:50:00+00:00,220.5315,0.09,12.81,47.84626,-54.09684
2019-02-07 08:00:00+00:00,224.9747,0.2,12.73,47.84626,-54.09684
2019-02-07 08:10:00+00:00,229.1114,0.2,12.65,47.84626,-54.09684
2019-02-07 08:20:00+00:00,226.5414,0.2,12.73,47.84626,-54.09684
2019-02-07 08:30:00+00:00,228.4831,0.2,12.73,47.84626,-54.09684
2019-02-07 08:40:00+00:00,236.5681,0.21,12.81,47.84626,-54.09684
2019-02-07 08:50:00+00:00,236.7415,0.24,12.81,47.84626,-54.09684
2019-02-07 09:00:00+00:00,236.9181,0.2,12.73,47.84626,-54.09684
2019-02-07 09:10:00+00:00,246.0865,0.2,12.65,47.84626,-54.09684
2019-02-07 09:20:00+00:00,254.5964,0.26,12.73,47.84626,-54.09684
2019-02-07 09:30:00+00:00,249.3831,0.26,12.73,47.84626,-54.09684
2019-02-07 09:40:00+00:00,248.3631,0.23,12.81,47.84626,-54.09684
2019-02-07 09:50:00+00:00,259.2681,0.3,12.81,47.84626,-54.09684
2019-02-07 10:00:00+00:00,263.4231,0.32,12.73,47.84626,-54.09684
2019-02-07 10:10:00+00:00,258.8347,0.35,12.65,47.84626,-54.09684
2019-02-07 10:20:00+00:00,258.4314,0.37,12.73,47.84626,-54.09684
2019-02-07 10:30:00+00:00,267.0214,0.3,12.73,47.84626,-54.09684
2019-02-07 10:40:00+00:00,274.9314,0.3,12.81,47.84626,-54.09684
2019-02-07 10:50:00+00:00,281.8113,0.34,12.81,47.84626,-54.09684
2019-02-07 11:00:00+00:00,286.5997,0.3,12.73,47.84626,-54.09684
2019-02-07 11:10:00+00:00,296.858,0.2,12.65,47.84626,-54.09684
2019-02-07 11:20:00+00:00,306.1063,0.3,12.73,47.84626,-54.09684
2019-02-07 11:30:00+00:00,312.528,0.3,12.81,47.84626,-54.09684
2019-02-07 11:40:00+00:00,321.003,0.2,12.81,47.84626,-54.09684
2019-02-07 11:50:00+00:00,336.4714,0.36,12.89,47.84626,-54.09684
2019-02-07 12:00:00+00:00,346.468,0.35,12.81,47.84626,-54.09684
2019-02-07 12:10:00+00:00,340.7364,0.29,12.81,47.84626,-54.09684
2019-02-07 12:20:00+00:00,344.1846,0.4,12.89,47.84626,-54.09684
2019-02-07 12:30:00+00:00,354.4713,0.49,12.97,47.84626,-54.09684
2019-02-07 12:40:00+00:00,358.5945,0.5,13.05,47.84626,-54.09684
2019-02-07 12:50:00+00:00,357.1795,0.54,13.21,47.84626,-54.09684
2019-02-07 13:00:00+00:00,357.2447,0.58,13.29,47.84626,-54.09684
2019-02-07 13:10:00+00:00,364.7596,0.6,13.29,47.84626,-54.09684
2019-02-07 13:20:00+00:00,367.5428,0.63,13.53,47.84626,-54.09684
2019-02-07 13:30:00+00:00,362.9746,0.6,13.68,47.84626,-54.09684
2019-02-07 13:40:00+00:00,360.0312,0.63,13.84,47.84626,-54.09684
2019-02-07 13:50:00+00:00,361.2162,0.68,14.0,47.84626,-54.09684
2019-02-07 14:00:00+00:00,358.098,0.69,14.0,47.84626,-54.09684
2019-02-07 14:10:00+00:00,351.643,0.69,13.92,47.84626,-54.09684
2019-02-07 14:20:00+00:00,351.1278,0.69,14.08,47.84626,-54.09684
2019-02-07 14:30:00+00:00,349.2746,0.6,14.16,47.84626,-54.09684
2019-02-07 14:40:00+00:00,343.6213,0.6,14.24,47.84626,-54.09684
2019-02-07 14:50:00+00:00,337.683,0.6,14.24,47.84626,-54.09684
2019-02-07 15:00:00+00:00,332.2546,0.6,14.08,47.84626,-54.09684
2019-02-07 15:10:00+00:00,321.7114,0.5,14.0,47.84626,-54.09684
2019-02-07 15:20:00+00:00,312.133,0.48,14.08,47.84626,-54.09684
2019-02-07 15:30:00+00:00,307.618,0.4,14.08,47.84626,-54.09684
2019-02-07 15:40:00+00:00,302.8364,0.3,14.24,47.84626,-54.09684
2019-02-07 15:50:00+00:00,289.2197,0.46,14.4,47.84626,-54.09684
2019-02-07 16:00:00+00:00,277.9181,0.57,14.64,47.84626,-54.09684
2019-02-07 16:10:00+00:00,274.3214,0.6,14.48,47.84626,-54.09684
2019-02-07 16:20:00+00:00,269.1914,0.55,14.56,47.84626,-54.09684
2019-02-07 16:30:00+00:00,258.0064,0.5,14.56,47.84626,-54.09684
2019-02-07 16:40:00+00:00,250.273,0.5,14.72,47.84626,-54.09684
2019-02-07 16:50:00+00:00,251.683,0.5,14.72,47.84626,-54.09684
2019-02-07 17:00:00+00:00,246.743,0.5,14.56,47.84626,-54.09684
2019-02-07 17:10:00+00:00,232.1164,0.5,14.4,47.84626,-54.09684
2019-02-07 17:20:00+00:00,222.7014,0.5,14.48,47.84626,-54.09684
2019-02-07 17:30:00+00:00,221.0497,0.5,14.4,47.84626,-54.09684
2019-02-07 17:40:00+00:00,210.4364,0.5,14.4,47.84626,-54.09684
2019-02-07 17:50:00+00:00,193.9915,0.5,14.32,47.84626,-54.09684
2019-02-07 18:00:00+00:00,190.5731,0.49,14.24,47.84626,-54.09684
2019-02-07 18:10:00+00:00,190.9581,0.5,14.08,47.84626,-54.09684
2019-02-07 18:20:00+00:00,181.8615,0.5,14.08,47.84626,-54.09684
2019-02-07 18:30:00+00:00,176.3331,0.49,14.08,47.84626,-54.09684
2019-02-07 18:40:00+00:00,178.0898,0.5,14.08,47.84626,-54.09684
2019-02-07 18:50:00+00:00,176.9515,0.5,14.0,47.84626,-54.09684
2019-02-07 19:00:00+00:00,168.7264,0.5,13.92,47.84626,-54.09684
2019-02-07 19:10:00+00:00,167.3498,0.5,13.76,47.84626,-54.09684
2019-02-07 19:20:00+00:00,176.1598,0.48,13.68,47.84626,-54.09684
2019-02-07 19:30:00+00:00,175.7797,0.5,13.68,47.84626,-54.09684
2019-02-07 19:40:00+00:00,171.2131,0.5,13.68,47.84626,-54.09684
2019-02-07 19:50:00+00:00,179.1382,0.48,13.6,47.84626,-54.09684
2019-02-07 20:00:00+00:00,185.2932,0.49,13.44,47.84626,-54.09684
2019-02-07 20:10:00+00:00,181.4948,0.49,13.29,47.84626,-54.09684
2019-02-07 20:20:00+00:00,186.0681,0.45,13.29,47.84626,-54.09684
2019-02-07 20:30:00+00:00,198.0331,0.44,13.29,47.84626,-54.09684
2019-02-07 20:40:00+00:00,196.3215,0.44,13.29,47.84626,-54.09684
2019-02-07 20:50:00+00:00,192.3915,0.4,13.21,47.84626,-54.09684
2019-02-07 21:00:00+00:00,203.2364,0.4,13.13,47.84626,-54.09684
2019-02-07 21:10:00+00:00,213.6347,0.4,13.05,47.84626,-54.09684
2019-02-07 21:20:00+00:00,213.3164,0.4,13.05,47.84626,-54.09684
2019-02-07 21:30:00+00:00,216.3597,0.4,13.05,47.84626,-54.09684
2019-02-07 21:40:00+00:00,225.9181,0.4,13.05,47.84626,-54.09684
2019-02-07 21:50:00+00:00,229.5998,0.4,13.05,47.84626,-54.09684
2019-02-07 22:00:00+00:00,233.6898,0.4,12.97,47.84626,-54.09684
2019-02-07 22:10:00+00:00,242.0564,0.4,12.89,47.84626,-54.09684
2019-02-07 22:20:00+00:00,245.7081,0.42,12.97,47.84626,-54.09684
2019-02-07 22:30:00+00:00,243.6514,0.41,12.97,47.84626,-54.09684
2019-02-07 22:40:00+00:00,248.8247,0.44,13.05,47.84626,-54.09684
2019-02-07 22:50:00+00:00,264.9647,0.43,13.05,47.84626,-54.09684
2019-02-07 23:00:00+00:00,269.0332,0.46,12.97,47.84626,-54.09684
2019-02-07 23:10:00+00:00,269.2181,0.44,12.89,47.84626,-54.09684
2019-02-07 23:20:00+00:00,278.7697,0.46,12.97,47.84626,-54.09684
2019-02-07 23:30:00+00:00,292.2263,0.46,12.97,47.84626,-54.09684
2019-02-07 23:40:00+00:00,294.048,0.47,12.97,47.84626,-54.09684
2019-02-07 23:50:00+00:00,298.3914,0.46,12.97,47.84626,-54.09684
